TimeMST,TemperatureF,Dew PointF,Humidity,Sea Level PressureIn,VisibilityMPH,Wind Direction,Wind SpeedMPH,Gust SpeedMPH,PrecipitationIn,Events,Conditions,WindDirDegrees,DateUTC
12:51 AM,64.0,21.9,20,29.82,10.0,SW,12.7,-,N/A,,Overcast,230,2013-03-08 07:51:00
1:51 AM,64.0,24.1,22,29.81,10.0,SSW,10.4,18.4,N/A,,Overcast,210,2013-03-08 08:51:00
2:51 AM,62.1,25.0,24,29.79,10.0,SE,4.6,-,N/A,,Overcast,140,2013-03-08 09:51:00
3:51 AM,62.1,28.0,28,29.80,10.0,SSW,4.6,-,N/A,,Overcast,210,2013-03-08 10:51:00
4:51 AM,57.9,28.9,33,29.81,10.0,South,6.9,-,N/A,,Scattered Clouds,170,2013-03-08 11:51:00
5:51 AM,55.0,35.1,47,29.82,10.0,SSE,8.1,-,N/A,,Scattered Clouds,150,2013-03-08 12:51:00
6:51 AM,55.0,36.0,49,29.83,10.0,SE,5.8,-,N/A,,Partly Cloudy,140,2013-03-08 13:51:00
7:51 AM,57.9,37.0,46,29.83,10.0,SSE,8.1,-,N/A,,Scattered Clouds,150,2013-03-08 14:51:00
8:51 AM,63.0,36.0,37,29.82,10.0,South,12.7,-,N/A,,Scattered Clouds,180,2013-03-08 15:51:00
9:51 AM,66.9,34.0,30,29.80,10.0,South,17.3,-,N/A,,Scattered Clouds,190,2013-03-08 16:51:00
10:51 AM,68.0,32.0,26,29.79,10.0,SSW,16.1,24.2,N/A,,Mostly Cloudy,210,2013-03-08 17:51:00
11:51 AM,68.0,34.0,28,29.77,10.0,SW,19.6,23.0,N/A,,Overcast,230,2013-03-08 18:51:00
12:51 PM,68.0,39.0,35,29.74,10.0,SSW,18.4,24.2,0.00,,Overcast,200,2013-03-08 19:51:00
1:51 PM,64.9,41.0,42,29.72,10.0,SW,24.2,32.2,0.00,Rain,Light Rain,220,2013-03-08 20:51:00
2:26 PM,64.4,44.6,49,29.87,10.0,West,20.7,-,0.00,,Mostly Cloudy,280,2013-03-08 21:26:00
2:51 PM,62.1,45.0,53,29.73,10.0,West,17.3,21.9,0.00,Rain,Light Rain,280,2013-03-08 21:51:00
3:51 PM,64.0,43.0,46,29.71,10.0,WNW,5.8,-,0.00,,Mostly Cloudy,290,2013-03-08 22:51:00
4:51 PM,64.9,42.1,43,29.69,10.0,West,10.4,-,0.00,,Mostly Cloudy,270,2013-03-08 23:51:00
5:51 PM,64.0,42.1,45,29.70,10.0,SW,4.6,-,N/A,,Mostly Cloudy,230,2013-03-09 00:51:00
6:51 PM,63.0,41.0,45,29.70,7.0,WSW,8.1,-,N/A,,Mostly Cloudy,250,2013-03-09 01:51:00
7:51 PM,62.1,35.1,37,29.70,5.0,WSW,19.6,-,N/A,,Widespread Dust,250,2013-03-09 02:51:00
8:51 PM,61.0,35.1,38,29.70,6.0,West,19.6,-,N/A,,Widespread Dust,260,2013-03-09 03:51:00
9:51 PM,60.1,35.1,39,29.69,7.0,WSW,11.5,-,N/A,,Overcast,240,2013-03-09 04:51:00
10:51 PM,59.0,36.0,42,29.68,8.0,WSW,13.8,-,N/A,,Scattered Clouds,240,2013-03-09 05:51:00
11:51 PM,57.9,35.1,42,29.69,8.0,WSW,17.3,-,N/A,,Scattered Clouds,240,2013-03-09 06:51:00